Deer Park, WA

10:24 AM PST on December 07, 2016 (GMT -0800)
Deer Park | | Change Station
Active Advisory: Winter Storm Watch Active Notice: Local Storm Report

Elev 2205 ft 47.97 °N, 117.42 °W | Updated 31 minutes ago

Overcast
Overcast
24 °F
Feels Like 17 °F
N
6
Wind Variable Wind from NE

Today
High -- | Low -- °F
--% Chance of Precip.
Yesterday
High -- | Low -- °F
Precip. -- in
Pressure 30.53 in
Visibility 10.0 miles
Clouds Mostly Cloudy 4000 ft
Overcast 7000 ft
Windchill 17 °F
Dew Point 12 °F
Humidity 60%
Rainfall 0.00 in
Snow Depth Not available.
7:25 AM 3:56 PM
First Quarter, 54% visible
METAR KDEW 071753Z AUTO 04005KT 10SM BKN040 OVC070 M04/M11 A3043 RMK AO2 SLP336 T10441111 11044 21056 51017
Pressure 30.53 in
Visibility 10.0 miles
Clouds Mostly Cloudy 4000 ft
Overcast 7000 ft
Windchill 17 °F
Dew Point 12 °F
Humidity 60%
Rainfall 0.00 in
Snow Depth Not available.
7:25 AM 3:56 PM
First Quarter, 54% visible
METAR KDEW 071753Z AUTO 04005KT 10SM BKN040 OVC070 M04/M11 A3043 RMK AO2 SLP336 T10441111 11044 21056 51017

10-Day Weather Forecast

Almanac

Astronomy

Dec. 07, 2016 Rise Set
Actual Time
Civil Twilight
Nautical Twilight
Astronomical Twilight
Moon
Length of Visible Light
Length of Day
Tomorrow will be .
, % of the Moon is Illuminated

Today's Extremes

State Highs State Lows

Community

WunderPhotos

Upload Photos

1,956,160 photos uploaded!

WunderBlog® & News

Nearby

Air Quality

  Air Quality AQ Index Pollutant
Not available.

Snow Depth

Station Depth Elevation

Earthquake Activity

City Distance Mag. Time & Date
Minimum magnitude displayed is 2.5.

Coastal Water Temperatures

Place Temperature

Stations

Nearby Weather Stations

Station Location Temp. Windchill Dew Point Humidity Wind Precip. Elev Updated Type
                   

Watches & Warnings

Winter Storm Watch
Issued: 2:37 AM PST Dec. 7, 2016 – National Weather Service

... Winter Storm Watch now in effect from Thursday evening through
Friday afternoon...

* locations... Republic, Inchelium, Wauconda, Chesaw Road,
Highway 20 Wauconda Summit, Boulder Creek Road, Sherman Pass,
Sandpoint, Athol, Bonners Ferry, Priest River, Eastport,
schweitzer Mountain Road, Colville, Deer Park, Chewelah,
Newport, Kettle Falls, Springdale-hunters Road, Orin-Rice
Road, and flowery trail Road.

* Snow accumulations... 3 to 6 inches of snow in the valleys and
in the mountains 8 to 14 inches.

* Timing... light snow will begin in the northern mountains Thursday
evening. Snow will increase Thursday night before decreasing
Friday evening. Another round of snow is possible Saturday.

* Impacts... heavy snow accumulation on roads will make travel
difficult and treacherous especially approaching mountain
passes.

* Web page: for a detailed view of the hazard area visit
http://www.Wrh.NOAA.Gov/map/?Wfo=otx.

Precautionary/preparedness actions...

A Winter Storm Watch means there is a potential for significant
snow accumulations that may impact travel. Continue to monitor
the latest forecasts.